Precipitable_Water
0.58 0.57 0.57 0.57 0.56 0.56 0.55 0.53 0.53 0.52 0.51 0.50 0.49 0.50 0.52 0.52 0.51 0.51 0.51 0.49 0.49 0.48 0.47 0.46 0.46 0.45 0.44 0.45 0.45 0.41 0.38 0.34 0.29 0.35 0.38 0.44 0.46 0.44 0.40 0.35 0.30 0.30 0.29 0.28 0.29 0.33 0.32 0.29 0.26 0.23 0.20 0.20 0.19 0.19 0.25 0.30 0.34 0.36 0.33 0.31 0.29 0.33 0.31 0.34 0.37 0.39 0.42 0.43 0.46 0.48 0.50 0.47 0.45 0.49 0.51 0.52 0.49 0.52 0.49 0.49 0.84 0.88 0.93 0.95 1.03 1.10 1.23 1.38
0.58 0.57 0.57 0.57 0.56 0.56 0.54 0.53 0.52 0.51 0.50 0.49 0.49 0.51 0.52 0.52 0.50 0.50 0.50 0.50 0.49 0.49 0.48 0.47 0.47 0.46 0.45 0.43 0.43 0.42 0.37 0.29 0.27 0.33 0.35 0.48 0.49 0.43 0.35 0.29 0.28 0.29 0.28 0.27 0.33 0.29 0.20 0.19 0.21 0.23 0.21 0.18 0.21 0.18 0.21 0.21 0.29 0.28 0.29 0.30 0.26 0.28 0.31 0.38 0.41 0.44 0.44 0.44 0.48 0.49 0.50 0.47 0.46 0.49 0.51 0.47 0.45 0.49 0.46 0.50 0.72 0.87 0.84 0.87 0.89 1.04 1.16 1.30
0.58 0.58 0.57 0.57 0.56 0.55 0.53 0.52 0.51 0.51 0.50 0.49 0.49 0.52 0.52 0.51 0.49 0.49 0.48 0.47 0.48 0.48 0.48 0.48 0.47 0.47 0.43 0.43 0.43 0.39 0.36 0.30 0.32 0.33 0.43 0.47 0.42 0.31 0.29 0.29 0.30 0.28 0.27 0.23 0.31 0.29 0.21 0.20 0.23 0.25 0.25 0.19 0.20 0.18 0.20 0.18 0.21 0.24 0.25 0.24 0.26 0.29 0.30 0.33 0.37 0.38 0.44 0.48 0.47 0.48 0.52 0.53 0.53 0.53 0.55 0.49 0.46 0.47 0.45 0.58 0.63 0.74 0.81 0.77 0.80 0.91 1.06 1.16
0.59 0.58 0.57 0.57 0.56 0.55 0.53 0.52 0.51 0.51 0.49 0.48 0.50 0.53 0.52 0.52 0.50 0.49 0.47 0.46 0.46 0.46 0.47 0.47 0.48 0.47 0.44 0.42 0.42 0.39 0.36 0.28 0.30 0.37 0.47 0.46 0.41 0.36 0.33 0.32 0.31 0.30 0.30 0.29 0.31 0.27 0.23 0.19 0.18 0.18 0.20 0.21 0.23 0.21 0.19 0.20 0.18 0.19 0.21 0.20 0.22 0.28 0.29 0.32 0.35 0.36 0.38 0.40 0.42 0.43 0.48 0.49 0.51 0.54 0.52 0.48 0.46 0.45 0.46 0.48 0.73 0.74 0.74 0.76 0.88 0.94 1.05 1.10
0.59 0.59 0.59 0.58 0.56 0.54 0.52 0.51 0.51 0.50 0.49 0.49 0.51 0.53 0.53 0.52 0.52 0.50 0.47 0.45 0.44 0.44 0.46 0.46 0.46 0.46 0.44 0.42 0.40 0.40 0.32 0.25 0.35 0.46 0.52 0.48 0.41 0.34 0.34 0.35 0.36 0.33 0.33 0.31 0.29 0.24 0.22 0.19 0.18 0.17 0.15 0.14 0.16 0.18 0.20 0.21 0.21 0.20 0.18 0.19 0.20 0.23 0.26 0.31 0.33 0.35 0.37 0.38 0.38 0.38 0.38 0.39 0.49 0.51 0.48 0.48 0.43 0.42 0.49 0.47 0.62 0.86 0.88 0.83 0.81 0.89 1.00 1.05
0.58 0.58 0.57 0.57 0.56 0.54 0.52 0.51 0.51 0.50 0.49 0.49 0.51 0.53 0.53 0.53 0.52 0.50 0.48 0.44 0.43 0.43 0.43 0.44 0.46 0.45 0.43 0.43 0.38 0.38 0.35 0.17 0.36 0.39 0.41 0.39 0.39 0.33 0.35 0.34 0.34 0.35 0.35 0.34 0.30 0.27 0.23 0.20 0.18 0.14 0.12 0.13 0.14 0.15 0.17 0.19 0.21 0.17 0.18 0.18 0.19 0.20 0.22 0.25 0.29 0.33 0.37 0.35 0.35 0.35 0.36 0.43 0.47 0.47 0.45 0.49 0.49 0.47 0.57 0.56 0.54 0.90 1.04 0.89 0.83 0.85 0.89 0.90
0.58 0.58 0.58 0.57 0.55 0.53 0.52 0.50 0.50 0.50 0.49 0.49 0.52 0.54 0.53 0.53 0.52 0.50 0.46 0.44 0.43 0.43 0.43 0.44 0.44 0.46 0.42 0.39 0.41 0.40 0.29 0.26 0.33 0.37 0.33 0.29 0.30 0.32 0.34 0.35 0.36 0.36 0.32 0.27 0.26 0.25 0.24 0.22 0.21 0.18 0.16 0.14 0.13 0.13 0.14 0.16 0.19 0.18 0.16 0.18 0.18 0.18 0.19 0.23 0.24 0.28 0.31 0.32 0.34 0.35 0.37 0.38 0.41 0.41 0.47 0.43 0.49 0.53 0.57 0.58 0.58 0.68 1.03 1.08 0.98 0.95 0.93 0.94
0.59 0.58 0.58 0.56 0.54 0.52 0.51 0.50 0.50 0.49 0.49 0.50 0.53 0.54 0.54 0.53 0.52 0.49 0.46 0.44 0.43 0.43 0.43 0.44 0.45 0.44 0.44 0.34 0.40 0.40 0.37 0.26 0.33 0.37 0.32 0.32 0.31 0.35 0.33 0.32 0.33 0.30 0.25 0.23 0.23 0.21 0.21 0.18 0.17 0.19 0.17 0.15 0.15 0.13 0.13 0.14 0.16 0.17 0.17 0.18 0.18 0.19 0.20 0.20 0.21 0.23 0.23 0.26 0.30 0.32 0.34 0.35 0.36 0.39 0.42 0.44 0.46 0.49 0.51 0.56 0.56 0.66 0.97 1.07 1.00 1.03 1.00 0.98
0.59 0.58 0.58 0.56 0.53 0.51 0.50 0.49 0.49 0.48 0.49 0.52 0.54 0.54 0.53 0.54 0.51 0.48 0.46 0.44 0.43 0.43 0.43 0.44 0.46 0.48 0.48 0.43 0.44 0.41 0.27 0.36 0.40 0.37 0.35 0.34 0.30 0.29 0.31 0.29 0.34 0.29 0.24 0.23 0.22 0.22 0.19 0.16 0.14 0.16 0.13 0.14 0.17 0.16 0.16 0.15 0.14 0.16 0.17 0.18 0.18 0.19 0.20 0.21 0.20 0.21 0.23 0.24 0.25 0.28 0.29 0.31 0.33 0.38 0.37 0.42 0.47 0.49 0.51 0.54 0.55 0.76 0.75 0.99 0.87 0.89 0.91 0.88
0.59 0.58 0.57 0.55 0.52 0.51 0.50 0.49 0.48 0.48 0.50 0.53 0.54 0.54 0.53 0.53 0.51 0.47 0.45 0.44 0.43 0.42 0.43 0.45 0.46 0.49 0.48 0.46 0.43 0.37 0.34 0.43 0.41 0.34 0.32 0.29 0.30 0.29 0.31 0.33 0.31 0.28 0.24 0.26 0.25 0.21 0.19 0.19 0.18 0.20 0.18 0.15 0.16 0.15 0.16 0.16 0.14 0.16 0.17 0.19 0.20 0.20 0.19 0.20 0.21 0.22 0.22 0.21 0.21 0.20 0.25 0.28 0.33 0.33 0.30 0.36 0.43 0.49 0.49 0.48 0.51 0.67 0.82 0.83 0.78 0.86 0.93 0.87
0.59 0.57 0.57 0.55 0.53 0.51 0.50 0.49 0.48 0.49 0.53 0.54 0.54 0.54 0.53 0.52 0.49 0.47 0.45 0.44 0.42 0.42 0.43 0.45 0.49 0.48 0.38 0.43 0.33 0.21 0.33 0.34 0.32 0.33 0.31 0.31 0.32 0.31 0.28 0.31 0.32 0.27 0.26 0.26 0.21 0.20 0.22 0.19 0.18 0.18 0.15 0.12 0.11 0.10 0.12 0.13 0.14 0.14 0.15 0.17 0.20 0.21 0.21 0.21 0.23 0.23 0.23 0.20 0.23 0.25 0.22 0.25 0.27 0.28 0.30 0.34 0.37 0.42 0.47 0.49 0.46 0.51 0.60 0.83 0.83 0.87 0.93 0.90
0.59 0.58 0.57 0.54 0.52 0.51 0.49 0.49 0.49 0.52 0.54 0.54 0.53 0.53 0.52 0.50 0.48 0.47 0.45 0.43 0.41 0.41 0.42 0.44 0.49 0.51 0.50 0.39 0.32 0.21 0.24 0.30 0.30 0.31 0.30 0.33 0.32 0.30 0.29 0.29 0.29 0.28 0.27 0.25 0.28 0.27 0.25 0.23 0.21 0.18 0.13 0.17 0.13 0.16 0.14 0.16 0.14 0.13 0.15 0.13 0.15 0.18 0.18 0.21 0.21 0.22 0.24 0.22 0.25 0.27 0.23 0.19 0.23 0.24 0.30 0.32 0.38 0.41 0.42 0.48 0.48 0.46 0.53 0.82 0.95 0.89 0.96 0.96
0.59 0.58 0.56 0.54 0.52 0.50 0.49 0.50 0.53 0.54 0.54 0.53 0.53 0.51 0.51 0.49 0.47 0.45 0.44 0.42 0.41 0.43 0.45 0.47 0.45 0.50 0.48 0.37 0.25 0.30 0.28 0.30 0.33 0.31 0.36 0.32 0.28 0.34 0.31 0.28 0.27 0.27 0.26 0.24 0.25 0.29 0.28 0.23 0.22 0.17 0.18 0.15 0.14 0.11 0.16 0.17 0.16 0.16 0.15 0.13 0.12 0.12 0.13 0.17 0.19 0.22 0.23 0.23 0.26 0.26 0.18 0.19 0.19 0.26 0.28 0.29 0.38 0.41 0.39 0.42 0.48 0.48 0.49 0.53 0.83 0.91 0.93 1.04
0.60 0.59 0.56 0.53 0.52 0.51 0.52 0.54 0.54 0.54 0.53 0.53 0.52 0.51 0.49 0.47 0.46 0.44 0.43 0.43 0.43 0.43 0.45 0.47 0.50 0.49 0.42 0.30 0.31 0.33 0.33 0.36 0.36 0.37 0.31 0.29 0.29 0.33 0.32 0.33 0.31 0.29 0.27 0.24 0.24 0.25 0.25 0.26 0.22 0.20 0.20 0.15 0.13 0.17 0.13 0.14 0.14 0.12 0.12 0.13 0.11 0.10 0.09 0.12 0.14 0.17 0.19 0.23 0.25 0.26 0.20 0.19 0.20 0.23 0.25 0.30 0.38 0.39 0.38 0.43 0.46 0.48 0.46 0.56 0.81 0.80 0.84 0.84
0.60 0.58 0.55 0.54 0.53 0.54 0.55 0.54 0.54 0.53 0.53 0.52 0.52 0.50 0.48 0.45 0.45 0.44 0.43 0.42 0.43 0.44 0.48 0.54 0.53 0.47 0.46 0.33 0.37 0.38 0.43 0.45 0.38 0.32 0.30 0.29 0.26 0.27 0.32 0.31 0.29 0.29 0.25 0.22 0.23 0.24 0.23 0.22 0.20 0.17 0.15 0.20 0.19 0.16 0.14 0.12 0.10 0.10 0.10 0.09 0.10 0.10 0.10 0.11 0.13 0.12 0.11 0.16 0.23 0.23 0.20 0.20 0.22 0.23 0.25 0.29 0.33 0.37 0.37 0.44 0.49 0.50 0.51 0.54 0.76 0.89 0.91 0.90
0.61 0.58 0.55 0.53 0.54 0.57 0.56 0.55 0.54 0.53 0.52 0.53 0.53 0.50 0.50 0.48 0.45 0.43 0.42 0.44 0.48 0.51 0.53 0.47 0.50 0.49 0.39 0.33 0.32 0.46 0.44 0.39 0.38 0.37 0.37 0.32 0.31 0.24 0.29 0.25 0.26 0.25 0.26 0.23 0.24 0.21 0.24 0.22 0.18 0.19 0.18 0.19 0.15 0.15 0.14 0.13 0.10 0.11 0.10 0.08 0.09 0.09 0.09 0.09 0.11 0.11 0.11 0.10 0.13 0.18 0.17 0.19 0.19 0.24 0.28 0.29 0.30 0.34 0.35 0.40 0.45 0.46 0.50 0.52 0.77 0.84 0.98 1.04
0.62 0.59 0.56 0.55 0.56 0.57 0.56 0.55 0.53 0.52 0.53 0.54 0.55 0.52 0.55 0.53 0.48 0.44 0.43 0.46 0.51 0.62 0.54 0.42 0.49 0.50 0.33 0.35 0.42 0.36 0.37 0.41 0.46 0.45 0.43 0.38 0.29 0.26 0.25 0.24 0.24 0.28 0.29 0.25 0.21 0.22 0.22 0.20 0.21 0.19 0.19 0.15 0.16 0.14 0.12 0.12 0.12 0.13 0.13 0.10 0.11 0.10 0.09 0.08 0.10 0.11 0.11 0.10 0.10 0.13 0.15 0.16 0.19 0.22 0.23 0.23 0.24 0.26 0.33 0.35 0.40 0.42 0.47 0.49 0.60 0.91 0.99 0.98
0.62 0.60 0.56 0.56 0.58 0.58 0.57 0.55 0.53 0.52 0.55 0.55 0.56 0.56 0.57 0.60 0.58 0.45 0.42 0.44 0.55 0.64 0.67 0.60 0.52 0.46 0.37 0.42 0.33 0.33 0.40 0.41 0.42 0.44 0.38 0.36 0.32 0.26 0.23 0.22 0.25 0.26 0.24 0.23 0.24 0.19 0.22 0.19 0.21 0.16 0.17 0.18 0.19 0.18 0.15 0.13 0.13 0.12 0.13 0.14 0.13 0.12 0.11 0.10 0.09 0.10 0.11 0.11 0.10 0.11 0.12 0.14 0.17 0.20 0.20 0.20 0.19 0.23 0.24 0.28 0.30 0.40 0.43 0.45 0.50 0.63 0.92 0.86
0.62 0.60 0.56 0.57 0.59 0.59 0.58 0.56 0.53 0.54 0.55 0.58 0.58 0.63 0.64 0.65 0.66 0.60 0.48 0.49 0.43 0.45 0.43 0.36 0.33 0.24 0.24 0.33 0.39 0.39 0.38 0.42 0.45 0.43 0.38 0.37 0.33 0.31 0.29 0.27 0.25 0.25 0.21 0.18 0.21 0.20 0.21 0.19 0.20 0.17 0.15 0.17 0.18 0.18 0.16 0.16 0.16 0.14 0.14 0.13 0.12 0.13 0.14 0.13 0.12 0.11 0.11 0.11 0.11 0.12 0.10 0.12 0.14 0.18 0.20 0.21 0.23 0.18 0.22 0.27 0.29 0.34 0.37 0.38 0.42 0.50 0.52 0.75
0.62 0.60 0.57 0.58 0.60 0.60 0.58 0.57 0.55 0.56 0.58 0.53 0.50 0.51 0.58 0.39 0.45 0.48 0.52 0.47 0.43 0.33 0.28 0.29 0.31 0.33 0.35 0.37 0.35 0.39 0.43 0.46 0.39 0.41 0.33 0.36 0.27 0.27 0.27 0.29 0.29 0.29 0.25 0.21 0.20 0.21 0.21 0.16 0.16 0.16 0.16 0.17 0.17 0.19 0.17 0.18 0.16 0.15 0.14 0.14 0.14 0.15 0.14 0.15 0.16 0.18 0.13 0.11 0.11 0.11 0.12 0.13 0.14 0.16 0.18 0.20 0.22 0.22 0.21 0.21 0.25 0.27 0.28 0.29 0.30 0.38 0.50 0.52
0.62 0.60 0.57 0.59 0.61 0.61 0.59 0.59 0.58 0.59 0.61 0.59 0.54 0.43 0.29 0.30 0.22 0.32 0.34 0.28 0.38 0.31 0.29 0.30 0.30 0.29 0.31 0.35 0.39 0.38 0.32 0.39 0.44 0.41 0.42 0.40 0.32 0.30 0.29 0.30 0.27 0.23 0.25 0.23 0.22 0.22 0.19 0.15 0.14 0.17 0.18 0.18 0.18 0.19 0.18 0.16 0.14 0.12 0.11 0.11 0.10 0.11 0.14 0.16 0.17 0.19 0.16 0.14 0.13 0.12 0.13 0.14 0.15 0.17 0.19 0.23 0.25 0.23 0.21 0.21 0.19 0.20 0.23 0.28 0.30 0.36 0.41 0.51
0.61 0.60 0.58 0.60 0.62 0.61 0.61 0.62 0.61 0.61 0.64 0.63 0.53 0.40 0.41 0.41 0.44 0.49 0.37 0.29 0.37 0.36 0.33 0.33 0.35 0.34 0.40 0.40 0.42 0.41 0.40 0.34 0.39 0.42 0.44 0.41 0.31 0.24 0.30 0.27 0.23 0.20 0.22 0.23 0.24 0.19 0.19 0.18 0.20 0.23 0.25 0.24 0.21 0.19 0.17 0.15 0.14 0.13 0.11 0.09 0.09 0.10 0.10 0.12 0.15 0.17 0.18 0.18 0.16 0.13 0.13 0.17 0.17 0.19 0.20 0.22 0.23 0.24 0.25 0.22 0.23 0.23 0.20 0.32 0.32 0.35 0.38 0.41
0.61 0.60 0.58 0.62 0.62 0.63 0.65 0.67 0.64 0.65 0.61 0.58 0.46 0.43 0.42 0.52 0.56 0.56 0.48 0.36 0.35 0.40 0.36 0.35 0.34 0.31 0.36 0.38 0.44 0.43 0.36 0.36 0.27 0.36 0.37 0.38 0.31 0.29 0.27 0.24 0.24 0.23 0.22 0.22 0.19 0.19 0.18 0.20 0.25 0.26 0.24 0.21 0.20 0.19 0.18 0.17 0.16 0.14 0.13 0.12 0.11 0.12 0.11 0.10 0.12 0.15 0.17 0.18 0.17 0.14 0.11 0.15 0.22 0.22 0.24 0.28 0.28 0.26 0.27 0.25 0.24 0.28 0.26 0.27 0.31 0.37 0.37 0.37
0.61 0.60 0.59 0.62 0.64 0.63 0.69 0.69 0.67 0.64 0.65 0.63 0.53 0.46 0.57 0.59 0.60 0.56 0.45 0.32 0.32 0.40 0.35 0.38 0.37 0.37 0.39 0.33 0.44 0.43 0.38 0.39 0.40 0.37 0.44 0.38 0.30 0.32 0.29 0.27 0.25 0.25 0.22 0.22 0.21 0.19 0.18 0.21 0.25 0.23 0.22 0.21 0.19 0.20 0.19 0.18 0.16 0.16 0.14 0.13 0.13 0.12 0.12 0.13 0.12 0.12 0.16 0.17 0.17 0.17 0.15 0.15 0.17 0.18 0.20 0.25 0.31 0.30 0.27 0.26 0.26 0.28 0.27 0.27 0.29 0.31 0.35 0.35
0.61 0.61 0.60 0.63 0.63 0.64 0.68 0.74 0.62 0.55 0.67 0.63 0.55 0.55 0.62 0.62 0.62 0.61 0.43 0.42 0.38 0.35 0.43 0.41 0.42 0.40 0.44 0.48 0.48 0.42 0.46 0.48 0.52 0.48 0.45 0.41 0.34 0.30 0.30 0.33 0.30 0.26 0.25 0.25 0.24 0.24 0.24 0.26 0.28 0.26 0.25 0.23 0.21 0.19 0.20 0.20 0.17 0.16 0.16 0.15 0.15 0.15 0.14 0.14 0.13 0.13 0.13 0.14 0.15 0.15 0.13 0.13 0.15 0.15 0.19 0.22 0.26 0.27 0.28 0.27 0.24 0.26 0.27 0.26 0.26 0.31 0.38 0.39
0.61 0.62 0.61 0.63 0.64 0.62 0.67 0.66 0.54 0.61 0.64 0.56 0.54 0.56 0.66 0.62 0.68 0.61 0.49 0.40 0.28 0.30 0.35 0.30 0.42 0.37 0.47 0.38 0.41 0.47 0.47 0.42 0.47 0.46 0.47 0.45 0.40 0.35 0.34 0.30 0.30 0.24 0.27 0.27 0.26 0.26 0.26 0.29 0.27 0.23 0.23 0.22 0.22 0.21 0.22 0.22 0.20 0.18 0.18 0.19 0.17 0.16 0.15 0.14 0.12 0.12 0.12 0.12 0.15 0.16 0.13 0.12 0.14 0.13 0.14 0.18 0.20 0.21 0.23 0.24 0.27 0.25 0.26 0.24 0.26 0.29 0.33 0.41
0.61 0.61 0.63 0.64 0.64 0.64 0.54 0.46 0.58 0.68 0.46 0.49 0.57 0.64 0.63 0.68 0.71 0.62 0.48 0.33 0.26 0.23 0.28 0.36 0.37 0.41 0.44 0.39 0.39 0.45 0.31 0.35 0.45 0.50 0.44 0.45 0.37 0.45 0.32 0.32 0.34 0.34 0.34 0.32 0.29 0.26 0.30 0.28 0.28 0.27 0.26 0.24 0.23 0.21 0.24 0.24 0.21 0.19 0.23 0.22 0.19 0.17 0.16 0.14 0.13 0.14 0.13 0.14 0.16 0.18 0.16 0.13 0.14 0.15 0.15 0.16 0.16 0.16 0.18 0.21 0.24 0.28 0.24 0.26 0.26 0.31 0.32 0.38
0.61 0.62 0.64 0.65 0.64 0.66 0.60 0.66 0.61 0.57 0.49 0.57 0.66 0.63 0.69 0.69 0.68 0.70 0.47 0.23 0.17 0.33 0.28 0.30 0.39 0.49 0.41 0.38 0.44 0.40 0.38 0.44 0.35 0.41 0.46 0.45 0.43 0.42 0.37 0.34 0.33 0.33 0.34 0.32 0.22 0.30 0.32 0.28 0.28 0.26 0.25 0.24 0.24 0.27 0.27 0.26 0.23 0.22 0.24 0.22 0.19 0.18 0.17 0.16 0.14 0.13 0.15 0.17 0.14 0.15 0.17 0.15 0.15 0.18 0.20 0.18 0.13 0.14 0.15 0.18 0.23 0.25 0.28 0.28 0.25 0.29 0.32 0.36
0.61 0.63 0.65 0.64 0.64 0.70 0.75 0.70 0.64 0.57 0.61 0.65 0.69 0.66 0.71 0.73 0.68 0.48 0.28 0.19 0.25 0.31 0.45 0.33 0.46 0.43 0.33 0.35 0.39 0.41 0.42 0.45 0.35 0.41 0.46 0.46 0.51 0.45 0.36 0.39 0.39 0.39 0.40 0.36 0.28 0.30 0.34 0.33 0.31 0.31 0.28 0.25 0.29 0.30 0.30 0.28 0.24 0.25 0.26 0.24 0.21 0.20 0.18 0.18 0.16 0.14 0.15 0.15 0.13 0.16 0.16 0.13 0.14 0.17 0.18 0.18 0.16 0.15 0.14 0.17 0.22 0.26 0.26 0.27 0.28 0.30 0.28 0.33
0.63 0.64 0.66 0.64 0.65 0.75 0.71 0.79 0.71 0.71 0.69 0.66 0.70 0.73 0.76 0.69 0.56 0.36 0.21 0.15 0.29 0.27 0.32 0.30 0.32 0.25 0.30 0.30 0.35 0.42 0.36 0.42 0.40 0.42 0.41 0.41 0.46 0.51 0.46 0.50 0.44 0.40 0.37 0.38 0.36 0.35 0.39 0.42 0.41 0.34 0.30 0.33 0.34 0.34 0.33 0.32 0.30 0.30 0.28 0.24 0.22 0.20 0.19 0.17 0.16 0.15 0.14 0.12 0.13 0.15 0.17 0.16 0.12 0.15 0.16 0.15 0.15 0.14 0.14 0.14 0.18 0.23 0.28 0.29 0.30 0.33 0.37 0.35
0.65 0.65 0.64 0.64 0.55 0.60 0.60 0.65 0.67 0.66 0.64 0.68 0.73 0.77 0.73 0.62 0.36 0.23 0.16 0.21 0.31 0.35 0.31 0.32 0.24 0.33 0.26 0.30 0.31 0.38 0.37 0.35 0.40 0.38 0.36 0.41 0.43 0.45 0.48 0.42 0.47 0.37 0.36 0.37 0.37 0.39 0.37 0.37 0.38 0.41 0.41 0.40 0.40 0.35 0.35 0.34 0.32 0.29 0.26 0.24 0.21 0.19 0.18 0.18 0.16 0.17 0.13 0.11 0.13 0.14 0.16 0.17 0.12 0.13 0.16 0.16 0.15 0.16 0.15 0.13 0.14 0.15 0.22 0.27 0.30 0.33 0.37 0.42
0.65 0.65 0.65 0.63 0.62 0.66 0.53 0.53 0.59 0.64 0.63 0.70 0.73 0.67 0.53 0.33 0.45 0.21 0.18 0.34 0.20 0.24 0.25 0.24 0.30 0.27 0.28 0.34 0.33 0.32 0.33 0.33 0.37 0.34 0.34 0.36 0.38 0.39 0.42 0.38 0.39 0.27 0.25 0.28 0.26 0.32 0.30 0.32 0.36 0.38 0.42 0.40 0.37 0.32 0.33 0.34 0.33 0.30 0.27 0.24 0.19 0.16 0.16 0.13 0.14 0.13 0.12 0.11 0.13 0.14 0.13 0.13 0.14 0.15 0.16 0.15 0.15 0.15 0.15 0.14 0.15 0.16 0.17 0.19 0.26 0.28 0.34 0.42
0.67 0.67 0.69 0.67 0.70 0.62 0.69 0.69 0.66 0.70 0.68 0.68 0.71 0.65 0.45 0.27 0.19 0.26 0.23 0.28 0.21 0.27 0.24 0.31 0.25 0.27 0.32 0.30 0.29 0.33 0.37 0.31 0.35 0.37 0.35 0.40 0.37 0.38 0.44 0.42 0.40 0.35 0.24 0.30 0.27 0.28 0.27 0.34 0.35 0.36 0.37 0.37 0.35 0.28 0.28 0.27 0.30 0.28 0.26 0.23 0.19 0.15 0.15 0.12 0.12 0.13 0.14 0.16 0.17 0.15 0.15 0.11 0.12 0.16 0.18 0.15 0.15 0.16 0.15 0.15 0.18 0.19 0.18 0.20 0.20 0.24 0.29 0.40
0.68 0.71 0.70 0.77 0.78 0.75 0.71 0.72 0.74 0.75 0.66 0.74 0.65 0.52 0.44 0.22 0.21 0.32 0.24 0.29 0.22 0.30 0.29 0.26 0.26 0.30 0.27 0.23 0.27 0.32 0.30 0.33 0.33 0.33 0.36 0.33 0.37 0.34 0.36 0.39 0.43 0.38 0.36 0.32 0.26 0.28 0.20 0.22 0.32 0.32 0.30 0.37 0.34 0.32 0.31 0.28 0.27 0.26 0.28 0.26 0.24 0.21 0.16 0.14 0.14 0.12 0.12 0.14 0.17 0.20 0.18 0.14 0.12 0.11 0.15 0.16 0.15 0.16 0.17 0.18 0.19 0.19 0.21 0.25 0.25 0.24 0.26 0.25
0.69 0.74 0.80 0.81 0.83 0.84 0.81 0.74 0.72 0.73 0.71 0.69 0.55 0.45 0.22 0.23 0.30 0.24 0.26 0.28 0.27 0.29 0.24 0.29 0.27 0.25 0.25 0.26 0.30 0.31 0.33 0.27 0.34 0.33 0.32 0.33 0.31 0.36 0.36 0.38 0.41 0.39 0.37 0.26 0.31 0.27 0.25 0.24 0.31 0.38 0.37 0.38 0.36 0.39 0.38 0.34 0.28 0.26 0.25 0.25 0.21 0.19 0.25 0.18 0.20 0.20 0.18 0.16 0.16 0.15 0.16 0.18 0.18 0.22 0.19 0.16 0.16 0.15 0.15 0.17 0.18 0.17 0.18 0.19 0.24 0.28 0.27 0.26
0.75 0.77 0.86 0.78 0.75 0.68 0.72 0.68 0.73 0.73 0.67 0.59 0.46 0.28 0.24 0.30 0.27 0.30 0.29 0.34 0.31 0.25 0.26 0.27 0.28 0.21 0.23 0.22 0.27 0.28 0.36 0.29 0.34 0.32 0.33 0.33 0.37 0.34 0.39 0.43 0.39 0.41 0.35 0.27 0.31 0.23 0.24 0.22 0.34 0.36 0.38 0.38 0.41 0.42 0.40 0.39 0.21 0.27 0.25 0.21 0.21 0.31 0.27 0.22 0.20 0.22 0.22 0.19 0.14 0.18 0.16 0.17 0.22 0.19 0.19 0.20 0.17 0.17 0.16 0.15 0.16 0.17 0.18 0.19 0.19 0.23 0.28 0.30
0.75 0.84 0.76 0.79 0.69 0.62 0.64 0.68 0.74 0.70 0.69 0.58 0.38 0.28 0.32 0.32 0.39 0.34 0.35 0.31 0.31 0.31 0.27 0.18 0.21 0.21 0.20 0.20 0.23 0.26 0.29 0.32 0.33 0.31 0.29 0.33 0.32 0.37 0.38 0.41 0.46 0.43 0.41 0.36 0.28 0.35 0.24 0.23 0.33 0.33 0.31 0.40 0.43 0.42 0.40 0.38 0.37 0.31 0.23 0.25 0.29 0.28 0.25 0.21 0.15 0.18 0.17 0.15 0.13 0.17 0.15 0.14 0.15 0.15 0.21 0.17 0.16 0.17 0.16 0.16 0.16 0.15 0.18 0.18 0.20 0.21 0.23 0.28
0.78 0.82 0.80 0.77 0.68 0.64 0.64 0.68 0.70 0.70 0.67 0.56 0.34 0.33 0.38 0.30 0.41 0.37 0.36 0.35 0.35 0.32 0.25 0.21 0.21 0.25 0.21 0.22 0.22 0.25 0.30 0.27 0.28 0.32 0.28 0.33 0.28 0.41 0.38 0.39 0.45 0.42 0.41 0.44 0.32 0.33 0.36 0.22 0.29 0.34 0.35 0.39 0.44 0.42 0.37 0.37 0.38 0.30 0.26 0.31 0.23 0.18 0.16 0.23 0.23 0.14 0.13 0.13 0.13 0.16 0.17 0.15 0.16 0.16 0.20 0.20 0.19 0.16 0.16 0.16 0.15 0.15 0.15 0.16 0.18 0.21 0.23 0.26
0.84 0.83 0.66 0.68 0.66 0.66 0.65 0.71 0.66 0.62 0.55 0.45 0.35 0.32 0.35 0.37 0.37 0.33 0.40 0.38 0.36 0.31 0.24 0.25 0.22 0.25 0.26 0.23 0.25 0.28 0.29 0.25 0.30 0.30 0.27 0.32 0.28 0.39 0.40 0.43 0.41 0.45 0.46 0.43 0.36 0.38 0.40 0.27 0.25 0.36 0.35 0.38 0.40 0.40 0.28 0.32 0.38 0.37 0.37 0.30 0.28 0.22 0.18 0.15 0.18 0.19 0.18 0.13 0.13 0.13 0.15 0.13 0.16 0.16 0.19 0.19 0.21 0.19 0.16 0.19 0.20 0.18 0.18 0.19 0.19 0.18 0.21 0.24
0.78 0.75 0.65 0.66 0.68 0.70 0.72 0.69 0.65 0.59 0.53 0.34 0.37 0.36 0.38 0.31 0.32 0.42 0.43 0.38 0.32 0.29 0.28 0.25 0.28 0.24 0.27 0.28 0.27 0.24 0.28 0.30 0.30 0.30 0.31 0.34 0.32 0.42 0.41 0.47 0.42 0.45 0.49 0.48 0.40 0.45 0.37 0.42 0.24 0.30 0.39 0.39 0.31 0.36 0.32 0.32 0.29 0.29 0.28 0.24 0.24 0.24 0.26 0.21 0.20 0.18 0.16 0.14 0.14 0.13 0.13 0.13 0.15 0.19 0.20 0.18 0.20 0.21 0.20 0.19 0.20 0.20 0.20 0.20 0.20 0.21 0.19 0.21
0.80 0.70 0.64 0.69 0.68 0.72 0.77 0.74 0.61 0.43 0.42 0.45 0.45 0.40 0.39 0.32 0.37 0.42 0.40 0.43 0.38 0.43 0.33 0.27 0.28 0.26 0.29 0.26 0.24 0.27 0.27 0.30 0.31 0.29 0.32 0.34 0.34 0.31 0.45 0.44 0.46 0.43 0.48 0.47 0.44 0.45 0.38 0.37 0.28 0.30 0.30 0.30 0.32 0.40 0.39 0.37 0.37 0.35 0.32 0.26 0.24 0.23 0.22 0.18 0.16 0.23 0.20 0.16 0.13 0.13 0.13 0.14 0.16 0.19 0.20 0.20 0.18 0.18 0.19 0.19 0.21 0.23 0.26 0.23 0.21 0.21 0.20 0.20
0.68 0.58 0.60 0.75 0.72 0.73 0.66 0.54 0.46 0.48 0.46 0.41 0.40 0.46 0.41 0.46 0.42 0.39 0.38 0.40 0.41 0.36 0.38 0.30 0.33 0.30 0.28 0.27 0.26 0.26 0.29 0.28 0.29 0.30 0.34 0.30 0.38 0.38 0.44 0.50 0.48 0.49 0.45 0.40 0.41 0.48 0.46 0.42 0.36 0.29 0.30 0.31 0.36 0.41 0.46 0.45 0.42 0.38 0.36 0.29 0.28 0.24 0.22 0.19 0.13 0.16 0.21 0.20 0.20 0.17 0.13 0.12 0.18 0.20 0.20 0.21 0.22 0.22 0.23 0.24 0.26 0.29 0.29 0.35 0.39 0.28 0.23 0.22
0.64 0.59 0.79 0.78 0.77 0.70 0.62 0.46 0.48 0.47 0.44 0.48 0.52 0.51 0.48 0.45 0.45 0.45 0.37 0.36 0.33 0.41 0.35 0.30 0.27 0.27 0.30 0.27 0.27 0.28 0.30 0.27 0.30 0.29 0.32 0.35 0.37 0.41 0.47 0.49 0.52 0.50 0.51 0.46 0.48 0.51 0.51 0.39 0.33 0.33 0.37 0.39 0.42 0.45 0.47 0.45 0.43 0.37 0.37 0.36 0.29 0.23 0.21 0.19 0.18 0.18 0.16 0.16 0.17 0.19 0.15 0.12 0.18 0.17 0.19 0.21 0.21 0.21 0.22 0.25 0.26 0.28 0.31 0.32 0.34 0.40 0.40 0.38
0.68 0.66 0.70 0.82 0.82 0.69 0.54 0.39 0.42 0.43 0.46 0.50 0.51 0.48 0.49 0.47 0.44 0.41 0.39 0.37 0.34 0.32 0.30 0.26 0.30 0.33 0.25 0.31 0.30 0.26 0.30 0.25 0.32 0.32 0.32 0.38 0.37 0.47 0.47 0.50 0.52 0.46 0.46 0.45 0.41 0.52 0.39 0.42 0.38 0.30 0.29 0.31 0.34 0.41 0.42 0.45 0.41 0.37 0.35 0.38 0.37 0.32 0.26 0.23 0.21 0.22 0.17 0.17 0.16 0.14 0.11 0.14 0.21 0.24 0.24 0.21 0.21 0.21 0.22 0.25 0.28 0.29 0.32 0.34 0.35 0.38 0.40 0.42
0.73 0.76 0.65 0.70 0.74 0.69 0.53 0.52 0.48 0.45 0.44 0.45 0.45 0.43 0.45 0.46 0.46 0.45 0.42 0.39 0.40 0.39 0.33 0.28 0.27 0.28 0.29 0.32 0.29 0.29 0.31 0.30 0.27 0.35 0.36 0.37 0.39 0.46 0.48 0.48 0.50 0.49 0.52 0.56 0.54 0.59 0.45 0.42 0.39 0.28 0.24 0.21 0.20 0.22 0.26 0.30 0.35 0.41 0.40 0.36 0.35 0.33 0.30 0.26 0.18 0.17 0.13 0.15 0.18 0.15 0.13 0.17 0.20 0.21 0.24 0.25 0.24 0.23 0.22 0.22 0.22 0.25 0.27 0.31 0.36 0.40 0.46 0.49
0.65 0.52 0.62 0.61 0.63 0.66 0.62 0.64 0.57 0.50 0.46 0.45 0.44 0.44 0.46 0.45 0.46 0.48 0.47 0.41 0.42 0.42 0.39 0.34 0.33 0.32 0.29 0.30 0.28 0.26 0.26 0.33 0.31 0.31 0.34 0.34 0.40 0.43 0.46 0.48 0.49 0.53 0.57 0.58 0.60 0.59 0.46 0.47 0.44 0.40 0.34 0.30 0.33 0.37 0.44 0.46 0.42 0.36 0.37 0.38 0.35 0.37 0.36 0.33 0.25 0.18 0.14 0.16 0.17 0.20 0.18 0.17 0.18 0.20 0.19 0.19 0.21 0.25 0.25 0.23 0.23 0.25 0.28 0.31 0.35 0.39 0.43 0.44
0.72 0.59 0.57 0.51 0.59 0.60 0.56 0.59 0.53 0.53 0.48 0.53 0.43 0.45 0.44 0.44 0.44 0.46 0.48 0.37 0.40 0.38 0.37 0.35 0.32 0.27 0.27 0.27 0.26 0.24 0.26 0.27 0.35 0.33 0.33 0.33 0.39 0.41 0.45 0.47 0.51 0.56 0.58 0.57 0.61 0.57 0.48 0.41 0.43 0.44 0.43 0.42 0.44 0.44 0.47 0.47 0.40 0.40 0.37 0.36 0.37 0.36 0.37 0.33 0.26 0.18 0.22 0.18 0.15 0.19 0.22 0.21 0.22 0.24 0.26 0.25 0.23 0.24 0.28 0.32 0.33 0.30 0.28 0.29 0.33 0.39 0.39 0.43
0.60 0.64 0.69 0.68 0.54 0.52 0.54 0.52 0.56 0.53 0.55 0.56 0.47 0.51 0.46 0.43 0.43 0.39 0.44 0.43 0.44 0.44 0.35 0.32 0.31 0.32 0.32 0.28 0.27 0.22 0.24 0.27 0.31 0.29 0.34 0.37 0.36 0.40 0.38 0.46 0.48 0.53 0.60 0.58 0.61 0.52 0.45 0.38 0.42 0.44 0.42 0.46 0.47 0.47 0.48 0.46 0.44 0.42 0.40 0.37 0.35 0.37 0.37 0.31 0.29 0.27 0.25 0.19 0.16 0.19 0.22 0.22 0.24 0.26 0.30 0.32 0.30 0.29 0.32 0.35 0.35 0.35 0.36 0.36 0.32 0.34 0.38 0.42
0.73 0.70 0.73 0.75 0.60 0.61 0.61 0.59 0.60 0.55 0.54 0.55 0.49 0.50 0.45 0.45 0.42 0.45 0.42 0.39 0.41 0.39 0.40 0.27 0.27 0.30 0.30 0.30 0.27 0.23 0.26 0.23 0.23 0.32 0.34 0.34 0.36 0.36 0.35 0.41 0.50 0.52 0.51 0.54 0.53 0.55 0.48 0.40 0.43 0.45 0.41 0.42 0.45 0.47 0.49 0.45 0.43 0.42 0.41 0.41 0.45 0.41 0.36 0.35 0.32 0.31 0.30 0.26 0.25 0.22 0.21 0.21 0.23 0.24 0.26 0.27 0.30 0.32 0.34 0.36 0.36 0.37 0.38 0.38 0.33 0.33 0.36 0.38
0.64 0.65 0.62 0.70 0.70 0.65 0.63 0.61 0.59 0.57 0.52 0.56 0.47 0.48 0.48 0.46 0.44 0.46 0.47 0.43 0.36 0.37 0.41 0.31 0.28 0.30 0.30 0.29 0.30 0.27 0.28 0.29 0.31 0.28 0.35 0.36 0.35 0.38 0.37 0.39 0.40 0.48 0.50 0.46 0.47 0.56 0.46 0.37 0.45 0.44 0.40 0.38 0.43 0.46 0.48 0.46 0.43 0.39 0.42 0.44 0.42 0.42 0.40 0.38 0.36 0.36 0.37 0.33 0.31 0.29 0.27 0.24 0.27 0.29 0.37 0.39 0.39 0.37 0.34 0.35 0.38 0.38 0.38 0.43 0.40 0.35 0.36 0.39
0.76 0.79 0.76 0.68 0.60 0.61 0.61 0.61 0.57 0.55 0.52 0.53 0.48 0.50 0.50 0.48 0.46 0.48 0.46 0.49 0.40 0.37 0.38 0.31 0.29 0.29 0.30 0.30 0.30 0.28 0.34 0.33 0.34 0.34 0.39 0.40 0.34 0.42 0.39 0.39 0.45 0.41 0.45 0.45 0.46 0.47 0.49 0.40 0.47 0.43 0.36 0.33 0.39 0.42 0.43 0.46 0.45 0.40 0.39 0.40 0.40 0.40 0.38 0.41 0.38 0.41 0.38 0.34 0.32 0.30 0.26 0.25 0.31 0.40 0.40 0.40 0.39 0.43 0.42 0.41 0.40 0.42 0.44 0.47 0.48 0.43 0.43 0.51
0.81 0.85 0.85 0.76 0.61 0.65 0.59 0.61 0.59 0.56 0.49 0.54 0.54 0.55 0.51 0.49 0.51 0.51 0.43 0.49 0.46 0.45 0.40 0.35 0.31 0.29 0.28 0.29 0.28 0.32 0.34 0.32 0.33 0.40 0.45 0.47 0.49 0.48 0.49 0.46 0.46 0.44 0.45 0.46 0.50 0.43 0.44 0.43 0.40 0.39 0.34 0.31 0.37 0.42 0.42 0.43 0.41 0.34 0.35 0.40 0.43 0.43 0.44 0.46 0.46 0.46 0.44 0.44 0.37 0.33 0.32 0.38 0.40 0.42 0.39 0.39 0.41 0.44 0.45 0.41 0.42 0.43 0.43 0.47 0.49 0.49 0.49 0.51
Wind_Speed
16 16 16 17 17 17 17 17 18 18 18 19 19 20 20 21 21 22 22 22 22 21 21 21 20 20 20 20 20 20 20 20 20 21 21 20 21 22 23 24 24 25 25 25 26 28 29 30 30 32 32 33 34 35 36 36 35 33 32 35 36 37 37 36 35 36 36 36 37 38 38 36 34 32 28 26 28 29 28 22 19 22 22 19 16 16 18 21
16 16 17 17 17 17 17 17 18 18 19 19 20 20 21 21 22 22 23 22 22 22 21 21 20 20 19 19 19 20 20 19 20 20 18 19 20 21 22 23 23 23 24 24 24 25 26 27 27 29 31 32 33 34 35 36 36 36 34 36 37 37 37 36 35 35 35 35 35 36 38 39 38 37 34 32 30 29 28 24 22 23 23 21 17 16 18 20
17 17 17 17 17 17 17 17 18 18 19 20 20 20 21 21 22 22 23 23 22 22 22 21 20 20 20 20 20 20 19 20 20 17 16 18 18 19 20 21 22 23 23 24 24 25 25 26 27 28 29 31 32 33 34 35 36 38 37 37 38 38 38 38 37 36 36 35 34 34 35 36 37 37 36 38 38 33 30 25 25 27 24 24 22 20 20 21
18 18 18 17 17 17 17 18 18 19 19 20 21 21 21 22 22 23 23 23 23 22 22 21 20 20 20 20 19 19 19 19 16 13 14 16 17 18 18 19 20 21 22 23 24 25 25 26 26 28 29 30 31 33 34 34 35 36 38 40 40 38 37 38 39 39 38 36 34 32 33 33 33 33 33 37 40 38 36 30 28 29 27 25 24 21 21 22
19 19 18 18 18 17 18 18 19 19 20 21 21 21 22 22 23 23 24 23 23 22 22 21 20 20 20 20 19 18 17 16 12 12 14 16 16 17 17 18 19 19 20 22 23 24 25 25 25 26 28 29 30 32 34 35 35 35 39 42 42 40 39 38 39 39 39 39 37 35 33 32 30 30 30 33 37 36 37 36 30 29 28 26 26 24 23 23
19 19 19 19 18 18 18 19 19 19 20 21 22 22 22 23 24 24 24 23 22 21 21 20 20 20 20 19 18 16 15 14 12 13 15 16 16 16 16 17 18 18 19 20 21 22 22 23 24 25 26 28 29 31 33 35 35 36 38 41 43 42 41 40 40 39 39 39 39 38 35 34 33 31 29 31 35 34 34 37 34 29 27 26 26 26 25 26
20 20 19 19 18 18 19 19 19 20 21 22 22 22 23 24 24 24 24 23 22 21 20 20 20 20 20 18 17 16 15 13 12 13 14 14 15 15 15 16 16 17 18 19 19 19 20 21 23 24 25 26 28 29 31 33 35 37 38 39 41 42 41 40 41 41 41 40 39 38 37 37 37 34 31 31 33 33 33 35 35 30 26 24 24 25 26 27
20 20 20 19 19 19 19 19 20 20 21 22 22 23 24 24 25 25 24 22 21 21 20 20 20 19 19 17 17 16 14 13 13 13 14 13 13 13 13 13 14 14 15 17 16 16 18 19 21 22 24 25 26 27 29 30 33 37 38 38 39 40 40 40 40 41 42 42 40 39 38 39 40 37 36 34 32 31 31 33 34 32 29 26 25 26 25 26
20 20 20 19 19 19 19 20 20 21 22 22 23 23 24 24 25 24 23 21 21 20 20 20 19 19 17 16 17 15 12 14 14 14 13 12 12 11 12 12 12 13 13 14 14 15 16 17 19 20 22 24 25 26 27 28 29 32 36 37 38 38 39 40 40 40 40 40 41 42 41 39 39 38 38 39 36 31 30 32 32 33 33 30 27 28 27 26
21 21 20 19 19 19 20 21 21 22 22 23 23 24 25 25 25 24 22 21 20 20 19 19 18 18 17 17 17 14 13 14 14 13 13 12 11 11 11 11 11 11 12 13 13 14 15 16 17 19 21 22 25 26 28 29 29 30 33 35 37 37 37 38 38 39 39 38 39 41 43 43 39 36 36 39 40 36 33 32 32 33 34 32 29 28 27 26
21 21 20 20 20 20 20 21 22 22 22 23 24 24 25 25 25 23 21 20 20 20 19 18 18 17 17 17 16 14 13 14 13 13 13 11 11 11 11 11 11 11 12 12 12 13 15 15 17 18 19 20 23 25 27 30 31 32 33 34 37 37 37 38 38 38 37 36 36 36 41 44 41 37 36 36 38 39 39 35 32 35 35 32 31 30 28 26
21 21 20 20 20 20 21 22 22 22 23 23 24 25 25 25 24 22 21 20 20 20 19 18 17 17 17 17 14 13 14 13 13 12 12 11 12 10 10 10 11 11 12 13 13 13 13 14 16 17 18 19 21 23 23 26 29 32 33 34 36 38 39 40 38 39 38 36 36 34 35 40 41 41 42 39 36 37 41 40 35 34 35 34 33 32 30 28
22 21 20 20 21 21 22 22 22 22 23 24 24 25 25 25 23 21 21 20 20 20 19 18 17 17 17 16 13 13 14 12 12 12 11 11 11 10 9 10 10 11 12 13 13 13 13 13 15 17 18 20 21 22 24 26 27 29 30 32 34 36 38 40 39 41 41 39 38 35 34 38 41 45 44 40 37 36 39 42 39 35 33 32 34 35 33 31
22 21 21 21 21 22 22 22 22 23 23 24 25 25 25 24 23 21 21 20 20 20 19 18 17 16 16 14 12 13 13 12 12 11 11 12 12 11 10 10 10 11 11 13 14 14 14 14 15 17 18 19 20 22 24 26 27 28 29 30 31 33 36 38 39 41 42 42 41 37 36 38 40 44 45 41 38 36 37 40 39 38 35 31 32 35 35 34
22 21 21 21 22 22 22 23 23 23 24 24 25 25 24 23 22 21 20 20 20 19 18 18 17 16 15 13 12 12 12 11 11 12 12 11 12 11 10 11 12 12 12 12 13 13 14 14 15 16 16 18 20 21 21 23 24 26 28 28 29 31 34 36 37 39 40 41 42 41 40 41 41 42 43 43 41 37 36 37 35 35 37 34 32 33 33 32
22 22 21 21 22 22 23 23 23 24 24 24 24 24 24 23 22 21 20 20 20 19 18 17 17 15 15 13 12 12 12 13 13 13 13 11 12 12 11 12 13 13 12 11 11 12 13 13 14 15 16 17 17 18 19 21 22 24 26 28 29 30 31 32 33 36 38 38 40 43 43 44 44 43 43 43 43 40 37 39 37 33 32 34 34 32 31 30
22 22 22 22 22 22 23 23 23 24 24 25 24 23 23 23 22 21 20 20 20 19 17 17 17 16 15 13 12 12 14 15 14 14 13 12 12 12 12 13 13 12 12 12 12 12 12 12 13 14 14 15 14 15 17 18 20 21 23 26 28 30 31 31 30 31 35 37 38 41 45 46 45 45 46 46 45 43 40 40 42 40 34 32 34 33 32 32
23 22 22 22 22 23 23 23 24 24 24 25 24 24 23 23 22 20 20 20 19 19 17 16 17 16 14 13 13 14 16 16 16 14 13 12 11 12 12 13 12 12 12 13 12 11 11 10 11 12 12 12 13 14 15 16 18 19 20 23 25 27 29 31 30 29 31 34 37 39 43 47 46 45 46 46 45 46 45 42 41 45 42 36 34 35 36 36
23 22 22 22 22 23 23 23 24 24 25 25 24 24 22 22 22 19 19 19 18 18 17 16 16 16 14 14 15 16 17 17 15 12 11 10 10 11 12 12 12 12 12 12 11 11 10 10 11 11 11 11 11 13 14 16 18 19 21 23 25 25 27 28 28 28 30 31 33 36 40 43 44 44 45 44 43 45 47 46 43 44 47 45 40 38 38 40
23 23 22 22 22 23 23 23 24 23 24 24 25 23 21 23 21 18 21 21 18 18 18 17 17 17 16 16 16 17 17 15 12 9 9 9 10 11 11 11 12 12 12 12 10 9 9 11 12 12 13 14 14 15 15 17 17 18 20 22 25 26 27 27 26 26 27 29 31 33 36 40 42 41 41 42 43 45 46 47 47 45 44 46 46 43 40 40
23 23 22 22 22 23 23 23 23 23 23 23 24 23 22 24 22 21 23 22 18 17 16 17 18 17 16 17 16 16 16 14 11 8 8 10 11 11 10 10 11 11 12 12 11 9 10 13 15 15 16 16 16 16 16 17 18 19 20 21 23 25 27 29 29 27 25 27 31 34 34 36 38 37 37 39 41 43 45 46 47 48 45 43 45 47 43 39
24 23 23 22 23 23 23 23 23 23 23 22 22 23 23 24 23 22 22 21 19 16 16 17 17 16 16 16 15 15 15 13 11 8 8 11 11 10 10 10 11 11 11 12 12 12 14 15 16 15 14 14 15 15 16 17 19 19 19 20 21 23 26 29 31 30 27 25 28 33 33 31 32 34 34 36 37 38 44 46 45 46 47 44 42 45 47 43
24 23 23 22 23 23 23 23 23 22 21 21 22 23 23 23 23 23 21 20 18 16 16 16 17 16 14 15 16 14 13 11 10 7 8 11 11 10 11 11 12 13 12 12 13 14 15 15 14 14 15 16 16 16 17 18 18 17 17 18 20 21 23 25 28 29 28 26 26 29 31 30 30 32 32 34 36 36 40 46 47 44 45 46 43 41 44 46
24 24 23 22 22 23 23 23 22 21 20 20 21 23 24 23 23 23 21 19 16 15 16 17 17 16 14 16 16 13 11 10 10 9 9 12 12 11 12 12 13 13 12 13 14 16 16 16 16 16 17 17 16 16 17 17 16 16 17 18 19 20 22 23 25 28 28 28 28 28 30 30 31 33 33 32 35 37 37 40 46 47 45 45 44 41 41 44
24 24 23 23 22 23 23 22 20 20 20 20 21 23 23 23 23 23 21 17 15 15 16 17 17 15 16 17 13 11 13 12 11 10 11 12 12 12 12 12 12 12 11 12 14 16 16 16 16 16 16 16 16 15 15 15 16 16 17 18 18 19 21 23 24 26 28 28 28 28 29 30 32 34 34 33 34 36 37 36 40 46 47 46 44 42 39 40
25 24 23 22 22 23 23 20 20 21 20 19 21 23 23 23 23 22 19 15 15 17 17 16 16 16 18 16 12 13 13 11 11 11 11 11 12 12 11 11 10 11 12 13 14 14 14 15 14 14 15 15 16 16 16 16 16 16 16 18 19 19 20 21 22 24 26 28 28 28 28 28 31 34 34 36 37 37 38 38 39 42 46 47 45 43 41 38
24 24 23 22 22 23 22 20 21 21 20 20 22 23 22 22 21 21 18 13 15 19 17 16 16 16 17 15 14 14 12 12 12 11 10 10 10 10 10 11 10 11 12 13 13 13 13 13 12 13 14 15 15 15 16 16 16 17 16 18 19 20 21 21 21 22 24 27 29 30 29 28 29 31 32 35 38 38 38 39 39 39 42 47 47 44 43 39
24 23 23 22 22 21 21 21 21 21 20 21 22 21 22 21 20 20 17 14 17 19 17 17 17 17 17 16 16 14 12 13 12 10 11 10 10 10 10 11 12 13 14 14 15 14 13 14 13 14 15 14 15 16 16 17 18 18 18 19 20 21 22 21 20 20 22 25 28 30 30 28 28 29 30 32 35 37 39 39 39 38 38 42 46 47 45 42
24 23 22 22 22 21 20 20 20 21 21 21 21 21 21 20 19 18 16 16 19 18 18 18 17 18 19 18 16 14 12 11 11 12 12 12 11 11 11 12 14 15 14 14 15 14 13 15 15 15 15 15 16 17 17 18 19 19 20 21 21 21 22 21 20 20 21 23 27 30 31 28 28 30 30 30 31 34 37 38 38 38 38 38 40 43 45 45
23 22 22 22 21 20 20 19 19 20 21 21 21 21 19 18 18 18 16 19 19 17 20 20 19 20 20 18 16 14 12 11 12 13 13 13 12 10 11 13 13 13 13 13 13 13 14 15 15 15 16 16 17 18 19 19 19 20 20 21 21 20 21 21 20 20 20 21 26 30 32 31 29 29 30 29 29 30 31 34 38 39 40 40 38 38 40 42
22 21 22 21 20 21 20 20 20 22 22 22 21 20 18 16 18 18 19 21 19 19 22 22 20 21 19 17 15 14 13 12 12 13 13 12 11 9 10 12 11 11 12 12 12 13 13 13 13 13 16 17 18 19 19 19 19 19 19 18 18 18 17 18 19 19 19 21 24 28 32 33 31 30 29 29 30 30 29 30 34 37 41 42 40 40 40 38
22 21 22 20 20 21 20 20 22 22 22 22 20 20 18 17 17 18 20 22 20 20 23 22 21 20 18 17 15 14 14 12 13 14 13 12 10 9 11 11 11 12 12 12 13 14 13 12 12 12 14 15 16 17 17 17 17 17 17 17 16 15 14 15 16 16 18 20 22 25 28 30 31 30 31 31 31 30 30 30 30 32 36 41 42 42 43 41
21 22 21 20 20 20 20 20 22 23 22 21 19 18 18 18 18 20 22 22 21 22 24 22 21 20 17 15 14 14 14 13 14 14 13 12 11 10 12 12 12 12 12 13 14 13 12 11 12 11 11 12 14 16 16 16 16 15 15 15 15 14 13 14 14 15 17 18 20 22 23 26 28 29 31 34 33 30 29 31 32 30 30 35 39 41 43 45
21 21 20 20 20 20 21 21 22 23 22 20 19 18 18 18 19 21 22 21 22 23 23 22 21 20 16 14 14 14 13 13 15 15 13 12 11 11 12 12 13 12 12 13 12 12 14 13 11 10 11 14 16 17 17 18 17 16 16 15 16 16 14 14 14 13 14 15 16 17 18 21 24 25 27 30 33 33 30 29 31 31 30 30 32 35 38 43
21 19 19 19 19 19 20 21 21 22 21 19 19 18 19 19 19 21 21 22 22 23 24 22 20 18 15 14 14 14 14 14 15 14 13 12 11 10 12 12 13 12 12 12 12 13 14 13 10 11 15 18 18 18 18 18 17 15 14 14 14 14 14 15 16 16 15 14 15 15 15 18 21 23 25 27 29 33 33 31 29 29 31 31 31 31 32 35
19 18 18 19 19 19 20 20 21 21 20 19 18 18 19 19 19 20 21 22 23 23 23 22 19 17 15 15 14 15 15 15 14 14 12 12 10 10 11 12 12 12 12 13 13 12 13 12 13 16 18 18 18 19 17 16 15 14 14 14 13 11 11 15 17 18 16 15 15 15 16 18 19 21 23 25 27 29 32 34 32 29 28 29 31 31 29 29
18 17 17 19 19 20 20 20 20 20 19 19 18 17 18 19 19 21 22 23 23 22 22 20 18 17 16 15 15 15 16 15 14 14 12 12 10 10 12 11 10 13 14 14 13 12 13 15 16 18 18 17 20 21 18 15 15 15 15 14 12 11 11 13 14 14 14 14 14 16 17 17 15 16 17 21 25 27 28 31 33 32 30 29 29 30 30 29
18 17 17 18 19 20 20 19 19 20 19 19 18 17 18 19 20 21 22 23 22 21 20 20 19 18 17 16 15 16 16 14 14 14 12 11 10 11 14 11 10 13 15 14 12 12 14 15 15 16 17 19 22 20 16 13 13 15 15 14 12 12 11 10 10 11 11 12 12 15 17 16 15 15 15 16 20 23 26 27 29 32 32 31 31 33 34 33
19 18 17 19 20 20 20 19 19 19 18 19 18 17 19 19 20 22 22 22 22 20 19 20 20 18 17 16 16 16 16 15 14 12 11 11 11 12 13 11 11 15 16 15 13 13 14 14 14 16 18 21 21 16 13 12 12 13 14 12 11 12 11 10 11 11 11 12 12 14 15 14 14 15 15 15 15 18 22 23 24 27 29 30 31 32 36 36
18 17 16 20 21 20 19 18 18 18 17 19 18 17 19 19 20 22 22 21 21 19 18 20 20 18 17 16 16 15 15 14 13 12 10 11 12 13 11 11 14 15 16 15 14 13 12 12 14 17 19 20 18 14 13 13 13 12 11 11 10 10 10 11 12 12 12 12 12 12 13 13 13 13 15 14 12 14 18 20 21 23 27 31 31 30 32 34
18 16 16 20 21 20 19 17 17 18 18 19 19 18 18 19 20 22 21 20 19 18 19 20 19 17 16 16 16 16 15 14 13 12 10 11 12 12 11 14 16 16 15 15 13 12 13 13 16 19 19 18 17 16 15 16 15 13 11 11 11 9 10 11 10 11 12 12 11 11 13 15 13 13 14 14 12 11 13 15 18 18 20 24 29 29 30 31
17 15 16 19 20 20 19 17 17 18 17 19 19 18 17 18 19 21 22 20 19 18 19 19 19 18 17 16 16 15 14 13 13 11 10 12 12 12 14 16 16 15 15 14 13 13 14 15 18 19 19 19 19 17 16 16 15 14 12 12 11 9 9 10 10 10 11 12 12 12 14 15 13 13 15 16 15 14 12 12 14 15 15 16 21 24 27 29
17 16 15 17 19 20 18 16 17 17 17 19 19 17 18 18 19 20 22 21 20 19 19 19 19 18 18 17 16 15 14 13 12 11 12 13 13 14 16 16 16 15 14 13 14 14 15 16 18 19 19 19 17 14 14 15 13 12 12 11 11 10 9 10 10 11 11 12 12 11 12 12 11 11 13 15 16 17 15 14 13 14 16 18 19 19 21 23
17 16 15 15 17 19 17 17 18 17 18 19 18 18 19 19 19 19 20 21 20 19 20 19 19 19 18 17 16 15 14 13 11 12 12 12 13 15 15 15 16 15 13 13 14 14 16 16 17 19 19 17 14 12 13 15 12 12 12 12 12 13 11 10 10 10 11 13 14 12 12 11 10 10 11 13 15 17 18 18 17 16 17 20 21 20 20 20
17 15 15 17 17 17 16 16 18 17 18 19 18 19 19 20 20 18 18 21 20 19 20 19 19 20 18 17 16 15 14 13 12 12 12 12 13 14 14 15 16 14 12 13 14 13 16 17 17 17 16 15 15 14 15 15 15 14 14 14 14 14 13 11 9 9 9 11 13 13 13 13 12 13 14 14 15 17 18 20 20 20 19 22 23 22 21 21
16 15 16 18 17 15 14 16 18 17 17 18 18 19 19 20 21 18 18 20 19 18 20 19 20 20 18 17 17 16 15 14 12 12 12 12 13 13 14 16 15 12 12 14 14 13 16 17 17 16 14 14 16 17 17 17 16 17 16 16 15 14 14 12 10 9 9 10 12 13 14 15 15 15 15 14 13 14 16 17 19 21 21 23 24 23 23 23
16 15 16 17 16 15 15 17 19 17 16 18 18 18 19 20 21 19 19 20 19 20 20 18 18 19 18 18 18 16 16 15 13 13 13 13 13 13 15 15 12 10 12 13 14 14 16 17 18 17 15 16 17 18 18 17 16 16 16 16 15 14 14 13 12 11 10 10 11 11 13 15 15 14 14 14 14 15 16 17 18 20 21 24 25 25 25 25
17 16 16 16 15 15 16 18 18 17 17 17 17 18 20 20 20 20 20 20 20 21 20 18 19 19 19 20 19 16 16 15 14 14 13 13 13 13 14 13 10 9 10 12 14 15 15 17 18 19 18 18 18 17 17 16 14 13 14 15 15 14 15 14 14 14 12 12 12 13 14 16 15 15 16 17 17 16 17 18 19 20 21 24 26 27 27 27
17 16 16 16 16 15 16 17 17 17 17 16 17 18 20 20 20 21 21 20 20 21 20 20 20 21 20 20 18 15 15 15 15 14 14 14 14 13 12 12 9 9 11 12 13 14 15 16 18 20 21 20 19 17 17 17 15 13 13 14 14 14 14 14 15 15 15 15 16 16 18 17 16 15 16 17 17 18 18 19 19 21 22 23 24 26 28 28
17 17 17 18 17 16 15 16 17 17 17 16 17 19 20 21 21 21 21 21 21 20 20 21 21 21 21 20 17 16 15 15 15 15 15 14 13 11 11 10 9 11 13 14 14 14 15 16 18 19 20 20 19 18 17 18 16 15 15 15 15 14 13 11 12 13 15 16 17 17 18 16 13 13 14 15 15 16 17 17 17 18 20 21 22 25 27 28
18 18 17 17 17 16 16 16 16 17 16 16 17 19 20 21 21 21 20 20 20 20 21 22 22 21 20 19 18 16 16 16 17 16 15 14 13 11 11 11 11 12 14 14 14 15 15 16 18 19 18 18 20 19 19 18 15 15 18 19 18 16 14 13 13 13 14 15 16 17 16 14 12 13 14 15 15 14 14 15 15 15 18 21 23 25 27 27
18 18 17 17 16 16 16 16 16 17 16 16 17 19 20 21 22 21 19 18 20 21 22 22 21 20 19 19 18 17 18 18 17 17 15 14 14 13 13 13 13 13 13 14 14 15 16 17 17 18 17 17 20 21 20 17 14 15 19 19 17 17 16 15 15 14 14 14 15 16 15 15 16 17 17 18 17 17 16 15 15 16 19 22 24 26 27 27
Wind_Direction
355 353 352 351 350 349 348 347 346 345 343 342 340 338 337 335 333 331 329 327 325 323 320 318 314 311 308 304 303 300 298 291 282 280 275 267 264 263 262 261 261 260 257 256 254 253 251 248 245 242 241 239 239 238 237 236 236 236 237 238 239 239 239 238 239 240 242 243 243 244 244 245 246 245 246 246 243 246 245 240 234 230 228 229 231 225 220 216
355 353 351 350 349 349 348 346 346 344 343 342 340 338 336 335 334 332 330 328 326 324 322 320 317 313 310 307 305 302 299 291 284 282 277 271 269 267 265 263 261 259 256 255 256 255 251 248 247 244 241 239 239 237 236 235 235 236 237 239 239 239 241 240 240 242 241 242 243 243 243 244 246 245 246 247 245 245 243 237 230 227 228 231 230 224 219 216
356 354 351 350 349 349 347 346 345 344 343 342 340 338 337 337 335 333 331 329 327 325 324 321 318 315 311 309 306 304 299 293 288 284 276 273 273 271 267 264 261 259 255 254 257 257 253 250 249 246 243 241 239 238 237 235 235 236 237 240 240 240 242 241 242 243 243 243 244 244 243 242 245 246 246 245 244 244 243 236 231 229 230 233 234 230 226 221
356 354 352 350 349 349 347 347 345 344 343 342 340 339 338 338 336 335 333 330 328 326 325 322 319 316 313 312 309 307 302 296 293 288 279 276 275 273 269 266 263 259 256 255 257 255 252 251 248 245 244 243 241 240 239 236 236 237 237 240 242 242 243 242 243 245 245 245 245 245 245 243 243 243 245 244 241 241 240 236 233 231 230 232 233 229 227 225
355 354 352 350 349 348 348 347 346 345 344 342 341 339 339 339 337 335 334 331 329 327 326 323 321 318 316 315 312 309 305 300 298 293 285 281 278 274 269 266 264 261 258 258 257 254 251 250 248 246 244 244 243 242 241 238 238 239 239 241 243 243 244 244 244 245 244 246 247 246 245 243 242 241 243 242 238 237 237 235 235 233 230 230 231 229 226 223
354 353 351 350 349 348 348 347 346 345 344 342 341 340 340 339 338 336 335 332 330 329 327 324 322 321 319 316 313 310 306 304 302 295 293 289 281 276 272 268 265 263 261 260 258 254 251 250 248 247 245 244 244 243 243 241 239 241 241 242 243 244 244 245 245 246 245 245 245 245 245 243 242 244 244 240 237 236 237 236 234 233 233 231 229 229 227 224
354 352 351 350 349 349 348 347 346 345 344 343 342 341 340 340 338 337 335 333 332 330 327 326 324 322 321 317 314 307 301 307 307 297 298 295 284 278 275 271 267 265 263 262 259 255 253 253 251 249 248 246 245 244 244 243 241 242 243 243 243 244 245 245 245 246 246 246 245 244 244 242 241 244 244 240 237 236 236 235 231 231 233 227 222 224 227 226
353 352 351 350 349 348 347 347 346 345 344 343 342 341 341 340 338 337 336 334 333 331 329 327 325 325 323 319 317 309 299 309 312 303 303 298 289 284 278 274 270 266 265 264 261 259 256 255 253 252 251 248 248 248 247 245 242 242 244 244 245 245 245 245 245 245 245 245 246 246 244 242 241 242 243 240 239 237 234 233 231 227 225 223 222 224 225 225
353 352 351 350 349 348 347 346 346 345 344 343 343 342 341 340 338 337 336 335 334 332 330 328 327 327 324 320 318 313 308 311 309 306 304 298 294 288 281 278 273 267 267 267 263 261 259 258 257 256 256 254 253 252 250 248 244 244 245 245 246 246 246 246 245 245 244 244 243 245 245 243 241 239 240 238 238 238 232 231 231 224 222 225 227 224 222 222
352 352 351 350 349 348 347 346 346 345 344 343 343 342 341 340 339 337 336 335 335 334 332 330 329 327 325 321 315 313 314 310 306 305 303 298 294 288 284 282 279 274 272 270 267 264 263 264 263 261 261 258 255 253 251 249 248 249 249 248 248 248 247 245 245 245 245 244 242 243 243 241 240 239 239 236 235 237 233 231 229 223 222 225 226 221 220 224
352 351 351 350 348 348 347 346 345 345 344 344 343 342 342 341 339 338 337 336 336 336 333 331 329 327 325 320 313 316 317 309 305 304 300 296 290 288 288 283 280 278 274 274 272 271 269 268 269 266 262 260 258 256 253 251 251 252 251 251 250 249 248 246 246 244 243 243 241 244 244 239 239 238 237 235 232 233 233 234 230 226 226 226 225 222 221 225
352 351 350 350 348 347 347 346 346 346 345 344 344 343 342 341 340 339 338 337 336 336 334 331 329 327 325 319 316 322 318 308 306 303 297 294 289 285 287 284 280 279 278 277 274 274 273 270 272 268 265 266 263 259 257 255 253 252 252 251 250 249 247 246 246 244 243 242 241 247 247 238 236 235 234 234 233 232 232 233 233 229 227 226 225 222 221 224
351 351 350 349 348 347 347 347 347 346 346 345 344 344 343 342 341 340 340 339 338 337 335 332 329 328 324 321 323 323 317 308 302 300 296 295 291 283 281 282 280 278 279 279 276 277 276 273 273 271 270 270 266 263 261 260 257 254 252 251 251 249 246 245 246 244 243 242 240 245 247 240 235 234 234 234 233 236 233 230 232 231 228 225 224 223 222 223
351 350 349 348 348 347 347 347 347 346 346 346 345 344 344 343 343 342 341 340 339 337 336 333 332 329 323 321 325 323 319 309 298 299 300 296 293 286 281 280 280 281 281 281 278 277 278 278 277 275 274 271 269 269 264 259 256 255 254 251 249 249 248 246 245 244 242 241 239 242 244 240 235 233 234 233 232 238 234 226 228 231 231 228 225 226 226 226
351 350 349 349 348 347 348 348 347 347 346 346 345 345 344 344 343 342 341 341 340 338 336 334 333 331 325 322 322 322 321 313 307 308 302 294 292 289 285 285 286 286 283 282 280 278 279 279 280 279 278 275 272 270 265 260 255 253 253 251 249 249 250 249 246 243 242 241 238 239 241 239 236 234 234 232 232 237 232 225 226 228 230 228 223 227 228 226
351 350 349 348 348 348 348 348 347 347 346 346 345 345 345 345 343 342 341 341 340 339 338 336 334 331 328 329 324 319 319 315 315 312 301 293 289 287 289 289 288 286 280 279 282 285 283 280 284 283 282 281 277 271 267 263 258 251 250 250 250 251 252 251 247 244 242 241 238 236 239 239 237 235 235 232 232 234 231 229 229 229 229 226 222 226 227 224
351 350 349 348 348 348 348 348 348 347 347 346 346 345 345 344 343 342 341 340 339 339 338 337 336 331 327 330 324 319 320 316 315 310 301 295 288 286 288 287 290 288 279 276 281 287 284 282 286 288 286 283 281 276 270 266 262 255 251 251 250 250 251 251 249 246 241 239 238 236 238 239 238 236 236 235 234 235 233 230 230 230 231 227 224 226 226 224
351 350 349 348 348 348 348 348 347 347 348 347 346 344 344 345 344 343 341 341 340 340 339 336 336 334 331 331 326 322 322 318 313 308 299 293 287 286 287 287 292 292 285 277 274 279 279 279 286 293 292 284 280 277 271 270 268 264 260 256 254 252 250 249 248 247 243 240 238 238 238 239 238 237 237 236 234 235 235 233 230 229 231 231 227 225 225 226
351 350 349 348 348 349 348 348 347 348 348 348 348 347 346 347 345 344 344 342 339 340 342 340 338 336 332 331 329 324 322 317 311 305 302 300 294 291 286 286 289 288 290 284 267 268 275 279 286 292 291 287 286 281 276 278 275 273 270 264 262 258 252 251 250 248 246 243 242 240 240 239 238 237 236 235 234 234 234 234 233 231 231 232 232 229 228 229
352 350 349 348 349 349 348 348 348 347 349 352 352 350 351 350 347 348 345 340 337 340 341 341 340 335 331 329 326 325 324 320 314 308 309 313 304 298 290 284 287 282 285 286 269 264 274 282 288 289 289 288 287 284 286 288 283 279 276 268 265 261 256 255 254 252 246 244 245 243 242 241 239 238 235 234 234 233 232 232 232 232 232 231 230 230 230 229
352 350 349 349 349 349 348 348 348 348 350 352 353 353 355 353 351 349 345 340 340 342 341 340 339 334 332 329 327 329 327 321 316 304 305 317 309 300 293 282 285 284 279 278 269 266 277 284 286 285 287 289 288 289 291 291 286 282 278 273 268 262 257 254 252 254 250 249 249 243 243 244 239 236 236 233 233 232 231 231 231 231 232 231 228 228 229 229
352 351 350 349 349 349 348 348 349 350 352 353 354 356 356 354 351 347 345 342 340 342 341 340 338 334 335 335 334 332 326 320 319 306 303 319 313 300 297 288 288 292 286 276 267 270 278 282 283 282 287 292 291 290 290 290 288 284 278 275 271 264 260 254 250 252 249 251 252 241 240 244 238 235 237 235 234 232 230 231 230 229 229 230 229 227 227 228
352 351 350 349 349 349 349 349 349 350 351 353 356 358 354 351 350 347 345 343 340 340 341 342 340 339 340 342 341 333 326 329 328 318 315 319 315 304 299 294 292 293 290 281 274 277 279 282 288 290 289 289 286 286 287 289 287 283 279 277 275 270 265 255 249 249 246 248 252 245 242 243 239 238 240 237 236 235 231 230 230 230 229 229 230 229 226 227
352 351 350 349 349 349 349 349 349 350 349 350 356 357 352 350 350 348 346 345 344 343 345 348 345 344 343 341 340 335 332 334 325 322 326 320 316 311 302 297 296 293 286 280 279 280 279 283 290 291 289 286 284 284 287 289 286 283 281 280 278 274 269 262 254 250 248 248 249 248 247 244 241 241 240 236 236 235 232 230 229 229 229 229 229 229 226 226
351 351 351 350 350 350 348 349 351 351 348 350 356 354 351 351 351 351 349 348 351 350 347 348 346 348 345 338 337 334 327 323 317 318 324 321 318 313 305 300 298 292 287 284 286 286 283 286 290 288 287 287 286 285 286 287 287 285 283 283 283 279 272 267 260 251 247 247 246 245 247 244 242 241 239 236 235 233 233 233 230 227 228 228 227 227 227 226
351 351 351 350 350 349 349 351 352 350 349 354 354 351 352 352 352 354 351 349 359 357 350 347 345 346 344 339 336 333 329 326 322 316 317 321 322 318 310 307 301 291 290 290 291 291 288 287 287 287 287 287 287 287 287 286 285 284 284 286 286 284 276 269 263 254 247 247 246 244 245 246 243 241 239 237 235 236 235 234 233 228 226 226 227 226 226 226
350 351 350 350 350 351 353 353 351 351 352 353 351 350 352 351 352 356 351 352 1 357 352 352 351 348 346 342 337 332 330 332 328 319 317 319 322 322 315 311 308 300 300 297 293 294 292 286 284 286 286 285 285 287 289 287 284 284 286 286 285 283 280 274 267 259 252 251 248 244 245 248 245 240 240 238 235 237 237 234 234 231 226 224 225 226 224 225
350 350 351 351 351 351 353 352 352 353 354 351 349 350 351 350 353 355 353 357 358 353 352 353 350 348 344 339 337 331 325 327 329 328 324 314 315 319 312 310 310 306 305 299 293 297 295 288 287 289 287 286 287 290 293 289 285 287 287 285 284 283 279 275 271 265 259 253 247 243 242 244 243 239 240 239 237 236 236 234 232 231 228 224 224 225 225 225
349 350 351 352 350 350 351 351 351 352 351 349 349 350 350 351 353 352 353 358 356 353 354 352 348 345 342 339 340 336 328 326 328 330 326 315 310 309 306 311 312 308 307 300 295 297 294 288 288 288 286 287 289 292 292 289 286 288 288 284 283 282 277 273 269 266 262 252 246 242 240 242 243 239 237 237 237 235 233 232 231 231 229 226 224 224 224 225
349 350 351 352 352 352 350 350 351 351 349 349 350 350 351 353 353 352 357 358 354 352 352 350 346 343 341 342 342 340 336 332 328 328 326 323 319 312 309 313 311 307 306 302 297 296 296 294 288 285 285 288 291 293 292 291 291 291 289 286 283 279 275 272 268 265 261 253 247 243 241 244 244 239 236 236 237 236 232 230 230 231 230 229 226 224 224 226
349 350 350 352 354 353 352 352 353 351 349 349 350 352 351 351 352 357 360 355 349 349 349 348 345 342 341 343 343 342 341 339 337 335 332 332 333 332 325 320 318 312 308 308 307 304 303 300 294 290 289 289 290 292 292 291 291 291 289 286 284 280 274 270 266 261 258 255 251 246 241 243 244 240 238 237 238 238 234 229 228 229 230 230 229 225 224 226
349 349 350 351 352 353 352 351 350 350 350 350 351 353 352 350 355 359 355 352 352 351 350 348 346 343 340 340 344 346 344 342 343 341 338 334 332 338 336 330 329 324 318 321 320 315 311 307 304 302 298 295 292 295 298 295 293 293 290 285 282 281 275 268 264 258 257 258 255 249 242 241 243 243 241 239 237 237 236 232 231 231 229 228 230 228 226 226
348 348 349 351 352 354 352 349 350 351 351 351 351 353 353 353 359 358 353 354 356 351 348 348 345 341 337 338 348 352 346 343 344 342 340 336 332 339 341 337 336 329 322 324 324 321 320 319 317 316 315 313 305 304 305 302 299 297 293 287 282 279 274 268 265 261 261 261 258 255 249 244 243 241 239 238 237 238 238 233 232 235 231 226 227 228 226 226
346 347 350 350 349 350 350 349 350 351 352 353 351 352 354 355 357 356 354 354 352 348 349 348 343 342 345 348 353 356 348 343 345 342 340 341 338 341 343 342 342 337 329 328 328 326 323 322 324 322 323 321 310 305 305 304 301 297 293 288 279 275 272 269 272 270 268 269 267 265 256 247 244 240 238 238 235 236 237 232 229 230 230 228 226 225 225 225
344 346 349 348 346 346 347 348 349 351 353 354 352 353 357 357 355 354 354 351 350 349 349 348 347 348 354 353 350 354 353 346 344 343 344 345 343 343 346 347 349 347 341 335 332 328 320 318 325 323 319 318 312 305 303 301 300 300 298 291 281 277 268 264 271 273 274 275 269 264 257 251 251 248 244 241 235 232 233 233 231 229 229 228 227 225 224 224
344 345 346 347 348 348 348 348 349 352 354 354 355 358 360 358 354 353 352 350 350 350 348 350 355 354 354 353 348 351 353 347 345 346 346 347 349 349 348 349 351 351 347 337 330 327 321 316 320 320 319 322 321 314 305 297 298 305 304 296 289 283 270 265 269 268 266 267 262 260 259 256 254 249 245 241 236 231 230 229 230 231 230 228 225 224 225 227
346 345 344 346 349 350 349 348 349 352 353 352 356 360 359 358 356 352 352 351 350 350 350 352 356 354 352 351 348 349 350 348 348 349 346 348 352 352 348 346 349 350 348 340 330 328 324 315 315 320 321 327 328 320 308 294 291 296 299 300 294 282 276 277 276 267 259 259 260 260 260 256 251 245 242 242 238 235 231 227 226 228 230 229 228 226 226 229
345 344 344 347 349 348 347 347 350 352 352 351 355 358 357 356 356 353 352 352 352 352 352 354 356 354 351 350 348 348 349 348 350 350 348 351 353 350 346 343 343 346 347 342 333 330 327 319 318 323 323 327 328 321 310 300 294 291 294 299 296 287 282 276 271 269 263 258 261 264 260 255 249 243 243 246 245 240 233 228 227 228 230 232 233 231 230 232
341 341 345 350 348 347 347 346 349 351 351 353 355 354 353 353 354 354 354 354 354 354 354 355 355 353 351 349 346 347 349 349 349 349 349 350 348 347 349 347 341 341 342 340 333 329 329 324 321 324 324 327 328 323 313 311 309 302 298 295 290 288 285 271 265 267 265 260 264 268 265 256 246 242 243 245 247 243 234 228 229 229 232 235 236 233 230 232
338 338 345 349 347 347 348 346 347 349 350 355 355 351 351 353 351 351 354 355 355 355 355 354 354 353 352 349 346 347 348 349 348 346 345 345 343 346 353 350 340 337 337 336 333 331 330 324 320 323 326 326 329 328 316 310 315 313 306 302 297 293 288 278 269 264 260 258 262 267 265 258 248 243 242 241 245 246 237 233 234 236 238 238 237 235 229 228
336 336 342 347 347 348 347 345 347 349 352 355 353 350 351 352 350 350 353 354 354 353 352 351 351 352 350 347 347 348 346 347 347 343 342 344 345 347 346 341 338 337 336 335 335 335 331 324 320 322 327 325 324 327 318 305 304 304 302 305 307 299 290 284 274 263 257 253 258 269 267 260 252 243 242 243 247 250 244 241 241 243 247 239 234 235 233 229
334 335 339 344 348 346 344 348 351 352 354 354 351 350 351 349 347 351 352 352 352 351 351 350 350 349 349 348 348 347 343 343 344 342 341 340 341 341 338 337 338 337 337 335 336 337 333 326 320 318 321 320 316 320 321 312 301 293 292 299 306 304 293 288 283 272 261 254 261 273 269 260 253 248 248 248 249 251 250 251 248 244 247 243 235 236 234 231
335 337 336 340 346 345 343 349 353 352 353 352 350 351 352 348 346 349 351 353 353 353 352 351 349 349 349 347 345 342 340 339 339 338 337 335 338 338 336 339 341 338 338 337 337 342 339 332 327 322 321 320 317 318 327 328 315 299 294 294 298 303 298 291 287 279 268 260 263 269 265 260 256 254 253 251 250 250 248 254 259 248 241 239 238 238 235 233
332 333 335 339 344 346 346 349 350 351 352 351 350 351 351 350 349 347 349 352 352 352 352 351 349 348 347 344 340 340 340 338 334 333 332 331 335 338 338 341 340 338 341 341 341 347 345 339 336 333 332 333 332 327 328 334 332 319 307 297 294 300 299 293 291 286 273 264 262 262 260 260 263 265 262 256 255 256 253 253 254 251 243 236 235 239 238 235
328 328 336 340 341 345 349 351 348 347 350 351 351 351 350 350 350 349 349 348 349 351 352 351 349 347 345 343 341 341 340 336 331 330 329 329 332 336 339 340 339 342 350 349 346 346 345 344 341 337 337 339 336 328 325 329 329 322 311 300 295 297 298 296 293 288 279 270 265 262 262 265 268 271 266 259 259 261 259 255 250 248 247 240 237 240 241 238
328 329 334 338 339 343 348 350 347 345 347 350 349 349 349 348 350 353 352 349 350 351 348 348 348 348 348 346 342 341 340 336 331 328 326 328 331 335 337 338 343 352 355 352 350 349 347 347 345 340 335 331 328 326 325 322 319 317 313 304 296 291 292 293 288 281 283 283 272 264 267 271 271 272 269 265 266 265 264 262 255 250 247 242 239 241 241 240
327 327 331 335 337 338 341 345 347 345 344 346 346 346 346 346 348 351 351 350 350 347 345 346 348 348 347 345 342 339 337 335 332 328 328 328 329 330 333 337 345 352 351 352 356 355 349 348 352 350 340 333 330 328 327 324 316 312 312 308 302 293 289 287 283 279 283 288 282 275 274 273 272 275 277 278 275 267 265 266 261 254 250 244 239 239 240 238
328 326 330 333 331 332 337 341 344 343 340 342 344 345 346 346 346 347 347 349 347 345 346 347 345 344 343 343 342 337 334 335 334 331 329 327 327 328 332 336 344 350 351 352 356 356 349 347 353 354 349 346 343 337 338 337 326 316 314 313 309 302 291 283 280 280 280 282 285 284 280 276 275 275 276 278 276 269 266 266 261 257 255 248 240 237 237 236
330 327 329 330 325 326 333 336 338 338 339 341 344 346 347 345 343 343 344 345 345 345 346 344 342 341 342 343 341 336 334 335 332 329 328 325 324 325 328 331 336 345 349 348 351 357 353 349 352 352 349 351 354 353 355 355 349 340 333 327 323 316 304 292 286 285 284 283 285 287 283 279 278 278 279 280 279 274 270 267 260 254 253 251 244 237 235 234
329 327 326 326 324 324 328 330 332 334 337 340 341 343 344 342 340 342 342 341 343 345 344 342 341 340 340 341 339 335 333 331 326 324 323 322 320 321 323 325 325 330 336 339 346 353 352 349 352 352 350 354 0 3 2 3 2 358 351 345 342 335 326 316 307 300 295 291 291 293 290 283 281 286 290 289 286 281 273 269 265 258 254 253 246 238 235 235
326 325 324 324 324 325 326 327 330 333 336 338 339 339 340 338 338 340 338 339 342 344 343 341 339 339 339 339 338 334 330 328 323 320 319 314 310 309 310 312 315 319 323 329 338 345 345 345 349 351 350 354 0 2 360 360 3 4 0 356 352 347 340 331 321 311 302 299 298 296 291 286 287 292 293 288 285 282 276 271 271 266 260 256 249 240 236 236
326 325 324 323 322 322 323 326 330 333 335 336 335 336 336 335 336 338 337 339 341 342 341 340 338 338 338 337 338 335 331 326 321 319 316 309 304 300 296 296 303 309 315 322 329 337 341 342 344 349 349 350 355 357 356 357 4 7 3 357 353 350 343 334 327 320 311 305 300 295 291 290 292 293 291 287 282 279 275 269 266 265 262 258 251 243 237 236